Flag for Cameroon Weather past 2 weeks in Douala, Cameroon

Now
75 °F

Thunderstorms. More clouds than sun.


Feels Like: 73 °F
Forecast: 74 / 78 °F
Wind: No wind

Location: Douala Obs.

Current Time: Sep 2, 2014 at 8:59:50 AM

Latest Report: Sep 2, 2014 at 8:00 AM


Visibility: 2 mi

Pressure: 29.95 "Hg

Humidity: 100%

Dew point: 75 °F

Location of DoualaLocation

Historic Weather in Douala — Graph

°F

Douala temperature yesterday

Maximum temperature yesterday: 82 °F (at 12:00 PM)
Minimum temperature yesterday: 75 °F (at 12:00 AM)
Average temperature yesterday: 77 °F

Past Weeks' High & Low Weather Summary

 TemperatureHumidityPressure
High86 °F (Aug 24, 2:00 PM)100% (Aug 18, 8:00 AM)30.04 "Hg (Aug 18, 8:00 AM)
Low72 °F (Aug 25, 2:00 AM)66% (Aug 26, 2:00 PM)29.83 "Hg (Aug 24, 4:00 PM)
Average77 °F92%29.92 "Hg
* Reported Aug 18 8:00 AM — Sep 2 8:00 AM, Douala, Weather by CustomWeather, © 2014

Note: Actual official high and low records may vary slightly from our data, if they occured in-between our weather recording intervals... More about our weather records

Advertising

Douala weather history for previous 24 hours

 ConditionsComfort  
Time TempWeatherWind HumidityBarometerVisibility
8:00 AM
Sep 2
75 °FThunderstorms. More clouds than sun.No wind100%29.95 "Hg2 mi
7:00 AM75 °FThunderstorms. More clouds than sun.No wind94%29.92 "Hg2 mi
6:00 AM75 °FThunderstorms. Mostly cloudy.No wind94%29.89 "Hg1 mi
5:00 AM75 °FThunderstorms. Mostly cloudy.5 mph94%29.89 "Hg1 mi
4:00 AM75 °FThunderstorms. Mostly cloudy.5 mph94%29.89 "Hg1 mi
3:00 AM75 °FThunderstorms. Mostly cloudy.No wind100%29.89 "Hg3 mi
2:00 AM75 °FThunderstorms. Mostly cloudy.No wind100%29.92 "Hg2 mi
1:00 AM75 °FThunderstorms. Passing clouds.No wind100%29.92 "HgN/A
12:00 AM75 °FPassing clouds.No wind100%29.95 "HgN/A
11:00 PM
Sep 1
77 °FPassing clouds.No wind94%29.95 "HgN/A
10:00 PM77 °FPartly cloudy.No wind94%29.95 "HgN/A
9:00 PM77 °FPartly cloudy.No wind94%29.92 "HgN/A
8:00 PM75 °FOvercast.No wind100%29.92 "HgN/A
7:00 PM77 °FOvercast.No wind94%29.92 "HgN/A
6:00 PM77 °FDrizzle. Cloudy.12 mph94%29.89 "Hg2 mi
5:00 PM79 °FBroken clouds.12 mph89%29.89 "Hg5 mi
4:00 PM79 °FBroken clouds.9 mph84%29.86 "Hg5 mi
3:00 PM81 °FPartly sunny.9 mph84%29.89 "HgN/A
2:00 PM81 °FPartly sunny.12 mph84%29.89 "HgN/A
1:00 PM81 °FPartly sunny.12 mph79%29.92 "HgN/A
12:00 PM82 °FPartly sunny.7 mph79%29.95 "HgN/A
11:00 AM79 °FPartly sunny.7 mph89%29.98 "HgN/A
10:00 AM79 °FPartly sunny.7 mph89%29.98 "HgN/A
9:00 AM77 °FThunderstorms. More clouds than sun.No wind94%29.98 "HgN/A
8:00 AM75 °FThunderstorms. More clouds than sun.No wind100%29.95 "Hg4 mi
Weather by CustomWeather, © 2014

See weather overviewHow to use our weather pages